CZ-4C R/B (43264 NORAD) Tracking and Keplerian Element Data

This shows tracking and keplerian element data for the satellite.

Feedback or suggestion? Click here.




ElementValue
Catalog43264
NameCZ-4C R/B
Epoch Orbit437
Epoch Day119.81850855
Epoch Year2018
RAAN196.8179
Inclination98.0747
Eccentricity0.0109293
Argument of Perigee292.098
Mean Anonmoly66.8666
Mean Motion14.99222444
Decay Rate5.02E-06
L11 43264U 18031F 18119.81850855 .00000502 00000-0 41962-4 0 9995
L22 43264 98.0747 196.8179 0109293 292.0980 66.8666 14.99222444 4374

Live tracking and technical data element details for CZ-4C R/B (NORAD 43264). CZ-4C R/B can be tracked NOW for your location showing map with azimuth and elevation plus other details from your city location.

Track the satellite on the map from your city or location and see movement details for azimuth, elevation, latitude, longitude, range, height, and movement on the map or in text.







IsCatalogInMostPopularTable: catalog: 43264, numindb: 65
Update: records affected: 1



GetName: 43264 CZ-4C R/B

Hit Count: updated at: Thu, 15 Nov 2018 03:55:32 GMT